TimeEDT,TemperatureF,Dew PointF,Humidity,Sea Level PressureIn,VisibilityMPH,Wind Direction,Wind SpeedMPH,Gust SpeedMPH,PrecipitationIn,Events,Conditions,WindDirDegrees,DateUTC
12:52 AM,57.9,54.0,87,30.13,10.0,NNE,4.6,-,N/A,,Clear,30,2013-10-12 04:52:00
1:52 AM,57.9,54.0,87,30.13,10.0,NNE,6.9,-,N/A,,Clear,30,2013-10-12 05:52:00
2:52 AM,59.0,53.1,81,30.14,10.0,NE,6.9,-,N/A,,Clear,40,2013-10-12 06:52:00
3:52 AM,59.0,54.0,83,30.15,10.0,NE,8.1,-,N/A,,Clear,40,2013-10-12 07:52:00
4:52 AM,59.0,54.0,83,30.16,10.0,NE,9.2,-,N/A,,Clear,40,2013-10-12 08:52:00
5:52 AM,59.0,54.0,83,30.17,10.0,NE,8.1,-,N/A,,Clear,50,2013-10-12 09:52:00
6:52 AM,60.1,53.1,78,30.18,10.0,NE,8.1,-,N/A,,Clear,50,2013-10-12 10:52:00
7:52 AM,61.0,55.0,81,30.21,10.0,NE,12.7,-,N/A,,Clear,50,2013-10-12 11:52:00
8:52 AM,61.0,55.0,81,30.24,10.0,ENE,17.3,23.0,N/A,,Clear,60,2013-10-12 12:52:00
9:26 AM,62.6,55.4,77,30.24,10.0,ENE,13.8,21.9,N/A,,Mostly Cloudy,70,2013-10-12 13:26:00
9:52 AM,62.1,55.0,78,30.26,10.0,ENE,15.0,20.7,N/A,,Overcast,70,2013-10-12 13:52:00
10:52 AM,61.0,54.0,78,30.27,10.0,East,17.3,26.5,N/A,,Overcast,80,2013-10-12 14:52:00
11:52 AM,61.0,55.0,81,30.28,9.0,ENE,15.0,21.9,N/A,,Overcast,70,2013-10-12 15:52:00
12:52 PM,60.1,55.0,83,30.27,7.0,East,12.7,20.7,N/A,,Overcast,80,2013-10-12 16:52:00
1:18 PM,60.8,53.6,77,30.27,9.0,East,16.1,24.2,N/A,,Overcast,80,2013-10-12 17:18:00
1:52 PM,60.1,54.0,80,30.28,9.0,ENE,13.8,25.3,N/A,,Overcast,70,2013-10-12 17:52:00
2:52 PM,60.1,53.1,78,30.29,10.0,ENE,12.7,20.7,N/A,,Overcast,70,2013-10-12 18:52:00
3:52 PM,59.0,52.0,78,30.30,10.0,ENE,13.8,19.6,N/A,,Overcast,70,2013-10-12 19:52:00
4:02 PM,59.0,51.8,77,30.30,10.0,ENE,12.7,20.7,N/A,,Overcast,70,2013-10-12 20:02:00
4:52 PM,59.0,51.1,75,30.31,10.0,NE,10.4,-,N/A,,Overcast,50,2013-10-12 20:52:00
5:52 PM,57.9,50.0,75,30.32,10.0,NE,12.7,21.9,N/A,,Overcast,50,2013-10-12 21:52:00
6:52 PM,57.0,50.0,77,30.33,10.0,ENE,13.8,-,N/A,,Overcast,60,2013-10-12 22:52:00
7:52 PM,55.9,48.9,77,30.34,10.0,ENE,12.7,-,N/A,,Mostly Cloudy,60,2013-10-12 23:52:00
8:52 PM,55.9,50.0,80,30.35,10.0,ENE,9.2,-,N/A,,Mostly Cloudy,60,2013-10-13 00:52:00
9:11 PM,55.4,48.2,77,30.35,10.0,ENE,10.4,-,N/A,,Scattered Clouds,70,2013-10-13 01:11:00
9:28 PM,55.4,48.2,77,30.36,10.0,ENE,10.4,-,N/A,,Mostly Cloudy,60,2013-10-13 01:28:00
9:52 PM,55.9,48.0,75,30.37,10.0,ENE,13.8,18.4,N/A,,Mostly Cloudy,70,2013-10-13 01:52:00
10:14 PM,55.4,48.2,77,30.36,10.0,ENE,9.2,19.6,N/A,,Scattered Clouds,60,2013-10-13 02:14:00
10:41 PM,55.4,48.2,77,30.37,10.0,ENE,11.5,-,N/A,,Mostly Cloudy,60,2013-10-13 02:41:00
10:49 PM,55.4,48.2,77,30.36,10.0,ENE,10.4,-,N/A,,Scattered Clouds,70,2013-10-13 02:49:00
10:52 PM,55.9,48.0,75,30.37,10.0,ENE,10.4,-,N/A,,Partly Cloudy,70,2013-10-13 02:52:00
11:52 PM,55.0,46.9,74,30.36,10.0,ENE,12.7,-,N/A,,Partly Cloudy,70,2013-10-13 03:52:00